Location: Rehoboth Beach
(38.7438°N, 75.1341°W)
Time: 06:25:07
(UTC-05:00)

Cosmos 1452 Rocket - Visible Passes

Search period start: 22 December 2014 00:00
Search period end: 01 January 2015 00:00
Orbit: 769 x 775 km, 74.1° (Epoch: 21 December)

Date Brightness Start Highest point End Pass type
(mag) Time Alt. Az. Time Alt. Az. Time Alt. Az.
26 Dec 5.7 19:13:44 10° N 19:14:20 13° N 19:14:20 13° N visible
27 Dec 5.0 18:38:12 10° N 18:40:11 21° NNE 18:40:11 21° NNE visible
28 Dec 4.7 18:02:57 10° N 18:06:30 21° NE 18:06:30 21° NE visible
28 Dec 5.2 19:44:19 10° NNW 19:46:58 28° NW 19:46:58 28° NW visible
29 Dec 5.1 17:28:16 10° NNE 17:30:48 13° NE 17:33:21 10° E visible
29 Dec 3.5 19:08:19 10° NNW 19:13:35 78° WSW 19:14:28 61° S visible
30 Dec 3.4 18:32:32 10° NNW 18:37:45 63° ENE 18:42:57 10° SSE visible
30 Dec 6.3 20:16:38 10° WNW 20:19:16 14° W 20:21:55 10° SW visible
31 Dec 4.0 17:56:58 10° N 18:01:50 37° ENE 18:06:41 10° SE visible
31 Dec 5.6 19:39:34 10° NW 19:43:44 24° W 19:47:53 10° SSW visible
